Regional Weather Roundup
Issued by NWS Little Rock, AR

Home | Current Version | Previous Version | Graphics & Text | Print | Product List | Glossary On
Versions: 1 2 3 4 5 6 7 8 9 10 11 12 13 14 15 16 17 18 19 20 21 22 23 24 25 26 27
000
ASUS44 KLZK 290505
RWRLZK

WEATHER ROUNDUP FOR ARKANSAS
NATIONAL WEATHER SERVICE LITTLE ROCK AR
1200 AM CDT MON AUG 29 2016

NOTE: "FAIR" INDICATES FEW OR NO CLOUDS BELOW 12,000 FEET WITH NO
SIGNIFICANT WEATHER AND/OR OBSTRUCTIONS TO VISIBILITY.

ARZ001-003-010-029-290600-
NORTHWEST ARKANSAS

CITY           SKY/WX    TMP DP  RH WIND       PRES   REMARKS
FAYETTEVILLE   CLEAR     70  70 100 CALM      30.14S
FORT SMITH     CLOUDY    76  70  82 CALM      30.08F
HARRISON       CLEAR     72  70  93 CALM      30.15F
BENTONVILLE    CLEAR     75  68  78 E5        30.15S
ROGERS         CLEAR     76  70  82 E6        30.16S
SILOAM SPGS    CLEAR     73  64  73 CALM        N/A
HIGHFILL       CLEAR     76  72  87 CALM      30.14S
$$

ARZ004-005-016-290600-
NORTH CENTRAL ARKANSAS

CITY           SKY/WX    TMP DP  RH WIND       PRES   REMARKS
BATESVILLE     CLEAR     73  72  94 CALM      30.10F
FLIPPIN        CLEAR     73  70  88 CALM      30.10S
MTN HOME       CLEAR     74  71  91 E3        30.13S
$$

ARZ040-041-290600-
WEST CENTRAL ARKANSAS

CITY           SKY/WX    TMP DP  RH WIND       PRES   REMARKS
MENA           PTCLDY    73  72  94 CALM      30.11S
MOUNT IDA      CLEAR     74  72  93 CALM      30.07S FOG
$$

ARZ009-017-025-026-028-290600-
NORTHEAST ARKANSAS

CITY           SKY/WX    TMP DP  RH WIND       PRES   REMARKS
CORNING          N/A     79  75  89 NE6       30.10F
JONESBORO      CLEAR     79  74  84 NE6       30.08S
NEWPORT        CLOUDY    76  75  97 N6        30.08F
WALNUT RIDGE   CLEAR     79  73  83 N5        30.09S
BLYTHEVILLE    CLEAR     76  74  93 NE3       30.09F
$$

ARZ022-023-033-042-044-290600-
CENTRAL ARKANSAS

CITY           SKY/WX    TMP DP  RH WIND       PRES   REMARKS
LITTLE ROCK    PTCLDY    81  74  79 NE3       30.06F HX  86
JACKSONVILLE   PTCLDY    78  76  93 CALM      30.06F
SEARCY         PTCLDY    78  75  90 N5        30.08F
HOT SPRINGS    CLEAR     77  73  87 CALM      30.08S
RUSSELLVILLE   CLEAR     75  73  93 CALM      30.08S
$$

ARZ036-290600-
EAST ARKANSAS

CITY           SKY/WX    TMP DP  RH WIND       PRES   REMARKS
WEST MEMPHIS   PTCLDY    77  74  90 NE3       30.06S
$$

ARZ050-053-066-070-073-290600-
SOUTHWEST ARKANSAS

CITY           SKY/WX    TMP DP  RH WIND       PRES   REMARKS
ARKADELPHIA    FAIR      78  76  93 CALM      30.05F
TEXARKANA      CLEAR     74  73  97 CALM      30.05F
EL DORADO      PTCLDY    76  75  97 CALM      30.03S
DE QUEEN       PTCLDY    72  72 100 CALM      30.04S FOG
$$

ARZ056-057-069-290600-
SOUTHEAST ARKANSAS

CITY           SKY/WX    TMP DP  RH WIND       PRES   REMARKS
PINE BLUFF     CLEAR     78  73  84 N5        30.05S
STUTTGART      PTCLDY    77  72  83 N6        30.06S
MONTICELLO     PTCLDY    79  75  87 CALM      30.03S

$$






USA.gov is the U.S. government's official web portal to all federal, state and local government web resources and services.